Terminal Aerodrome Forecast
Issued by NWS Charleston, WV

Current Version | Previous Version | Text Only | Print | Product List | Glossary Off
Versions: 1 2 3 4 5 6 7 8 9 10 11 12 13 14 15 16 17 18 19 20 21 22 23 24

666
FTUS41 KRLX 192100 AAA
TAFHTS
TAF AMD
KHTS 192100Z 1921/2018 29006KT P6SM SKC
     FM200700 VRB03KT 6SM BR FEW090
     FM200900 34004KT 2SM BR OVC003
     FM201200 35004KT 4SM BR FEW003
     FM201400 35005KT P6SM SCT200=

USA.gov is the U.S. government's official web portal to all federal, state and local government web resources and services.